[[{"header":{"parameterUnit":"m.s-1","parameterCategory":2,"la1":30.2991,"la2":30.254,"lo1":-89.0895,"lo2":-89.0444,"dy":0.0017,"dx":0.0017,"nx":28,"ny":28,"refTime":"2025-03-25T03:00:00:Z","depth":"0","parameterNumber":2,"parameterNumberName":"U-component_of_CURRENTS"},"data":[0,0,0,0,0,0,0,0,0,0,0,0,0,0,0,0,0,0,0,0,0,0,0,0,0,0,0,0,0,0,0,0,0,0,0,0,0,0,0,0,0,0,0,0,0,0,0,0,0,0,0,0,0,0,0,0,0,0,-0.1868,-0.187,0,-0.1938,-0.1939,-0.1939,-0.1926,-0.1926,-0.1925,-0.1924,-0.186,-0.1859,-0.1858,0,0,0,0,0,0,0,0,0,0,0,0,0,-0.1695,-0.1698,-0.1868,-0.187,-0.1871,-0.1938,-0.1939,-0.1939,-0.1926,-0.1926,-0.1925,-0.1924,-0.186,-0.1859,-0.1858,0,0,0,0,0,0,0,0,0,0,0,0,0,-0.1763,-0.1699,-0.1868,-0.1877,-0.1879,-0.1938,-0.1939,-0.1939,-0.1927,-0.1926,-0.1924,-0.1923,-0.186,-0.1859,-0.1857,-0.1869,0,0,-0.1853,-0.1852,0,0,0,0,0,0,0,0,-0.1759,-0.1769,-0.1874,-0.1877,-0.1879,-0.1928,-0.1854,-0.1911,-0.1927,-0.1903,-0.1924,-0.1923,-0.1874,-0.1872,-0.1881,-0.1866,-0.1864,-0.1852,-0.1851,-0.1851,-0.185,0,0,0,0,0,0,0,-0.1754,-0.1765,-0.189,-0.1876,-0.1879,-0.1868,-0.1876,-0.1865,-0.1887,-0.1905,-0.1905,-0.1922,-0.1874,-0.1883,-0.1879,-0.1863,-0.1852,-0.1851,-0.185,-0.185,-0.1857,-0.1858,0,0,0,0,0,0,-0.1761,-0.1762,-0.1888,-0.1893,-0.1822,-0.1873,-0.1881,-0.1908,-0.189,-0.1889,-0.1923,-0.1922,-0.1886,-0.1881,-0.1877,-0.1894,-0.1851,-0.1849,-0.1848,-0.1856,-0.1857,-0.1858,0,0,0,0,0,0,-0.1757,-0.1772,-0.1885,-0.1832,-0.1847,-0.1878,-0.1907,-0.191,-0.1918,-0.1907,-0.1901,-0.1928,-0.1885,-0.1879,-0.1872,-0.1891,-0.1849,-0.1847,-0.1855,-0.1856,-0.1858,-0.1926,0,0,0,0,0,0,-0.1752,-0.177,-0.1783,-0.1833,-0.185,-0.1923,-0.1909,-0.1913,-0.1933,-0.1931,-0.1909,-0.1902,-0.1884,-0.1875,-0.1871,-0.1888,-0.1846,-0.1853,-0.1855,-0.1857,-0.1922,-0.1929,-0.1936,0,0,0,0,0,-0.1745,-0.1771,-0.1784,-0.1799,-0.1871,-0.1924,-0.1931,-0.1944,-0.1934,-0.1944,-0.193,-0.1903,-0.1885,-0.1875,-0.1869,-0.1887,-0.1852,-0.1855,-0.1857,-0.1919,-0.1928,-0.1936,0,0,0,0,0,0,-0.1701,-0.1775,-0.1789,-0.1835,-0.1878,-0.1924,-0.1934,-0.1948,-0.1948,-0.1939,-0.1916,-0.1909,-0.1913,-0.1891,-0.188,-0.1896,-0.1865,-0.1867,-0.1914,-0.1922,-0.1929,-0.1946,-0.1845,0,0,0,0,0,-0.1701,-0.1736,-0.1804,-0.1836,-0.1859,-0.1896,-0.1916,-0.1934,-0.1949,-0.1949,-0.1938,-0.1925,-0.1923,-0.1914,-0.1907,-0.1912,-0.1904,-0.1921,-0.1928,-0.1934,-0.1945,-0.195,-0.1958,-0.1867,-0.1867,-0.1867,0,0,-0.1693,-0.1736,-0.1756,-0.1828,-0.1855,-0.1905,-0.1903,-0.1942,-0.1977,-0.194,-0.1961,-0.1948,-0.1931,-0.1943,-0.1942,-0.1923,-0.1958,-0.1937,-0.1942,-0.195,-0.1954,-0.1962,-0.197,-0.1869,-0.1868,-0.1868,0,0,-0.1693,-0.1732,-0.1762,-0.1809,-0.1868,-0.1902,-0.1916,-0.1969,-0.1981,-0.201,-0.1995,-0.2,-0.1988,-0.1992,-0.1989,-0.203,-0.1998,-0.2019,-0.2063,-0.2068,-0.2076,-0.2082,-0.2094,-0.2101,-0.2018,-0.2019,-0.2019,0,-0.1679,-0.1739,-0.1776,-0.1824,-0.1868,-0.1904,-0.1955,-0.1982,-0.2025,-0.2038,-0.202,-0.2037,-0.2019,-0.2048,-0.2062,-0.2048,-0.2041,-0.2032,-0.2078,-0.2084,-0.2089,-0.2099,-0.2106,-0.2022,-0.2022,-0.2021,-0.2021,0,-0.1714,-0.1764,-0.1785,-0.1864,-0.1909,-0.196,-0.202,-0.2049,-0.2065,-0.2092,-0.2121,-0.2112,-0.2119,-0.2119,-0.2101,-0.2137,-0.2118,-0.2089,-0.2057,-0.2103,-0.211,-0.2116,-0.2027,-0.2026,-0.2025,-0.2024,0,0,-0.1691,-0.1791,-0.18,-0.1846,-0.1942,-0.1985,-0.2044,-0.2112,-0.2144,-0.2172,-0.2211,-0.2223,-0.2213,-0.221,-0.2194,-0.2202,-0.2238,-0.2162,-0.2161,-0.2176,-0.2252,-0.2221,-0.2223,-0.2209,-0.221,-0.2211,-0.2245,0,-0.1712,-0.1793,-0.1848,-0.1935,-0.1989,-0.2053,-0.2106,-0.2166,-0.2199,-0.2239,-0.225,-0.227,-0.2249,-0.2246,-0.2259,-0.2237,-0.2255,-0.2232,-0.2204,-0.2204,-0.2171,-0.223,-0.2002,-0.2011,-0.2251,-0.2251,-0.2252,0,-0.1741,-0.1795,-0.1871,-0.198,-0.2009,-0.2061,-0.2153,-0.2207,-0.2271,-0.2292,-0.2324,-0.2325,-0.2354,-0.2318,-0.2333,-0.2313,-0.2296,-0.2282,-0.2282,-0.2234,-0.2183,-0.2002,-0.2012,-0.1837,-0.2261,-0.226,-0.2259,0,-0.1706,-0.1821,-0.1874,-0.1917,-0.2035,-0.2073,-0.2134,-0.2212,-0.2253,-0.2317,-0.234,-0.2378,-0.2381,-0.2381,-0.236,-0.234,-0.2368,-0.2333,-0.23,-0.2297,-0.209,-0.2068,-0.1927,-0.2354,-0.2354,-0.2354,-0.2354,0,-0.1724,-0.1775,-0.1857,-0.1893,-0.1965,-0.2052,-0.2122,-0.2184,-0.2258,-0.2303,-0.2351,-0.2379,-0.2391,-0.2405,-0.2388,-0.2368,-0.239,-0.2329,-0.231,-0.2109,-0.2089,-0.1916,-0.1917,-0.2355,-0.2355,-0.2355,-0.2354,0,-0.1692,-0.1744,-0.1811,-0.1913,-0.1949,-0.1994,-0.2112,-0.2161,-0.223,-0.2289,-0.2306,-0.2374,-0.2392,-0.2412,-0.2412,-0.239,-0.2298,-0.2368,-0.2143,-0.2098,-0.1905,-0.1922,-0.1937,-0.1907,-0.234,-0.234,-0.234,0,-0.1692,-0.1713,-0.1798,-0.1835,-0.1883,-0.1964,-0.2025,-0.2128,-0.2178,-0.2277,-0.2297,-0.2345,-0.2361,-0.2377,-0.2324,-0.2307,-0.2264,-0.2121,-0.2054,-0.1882,-0.1885,-0.1949,-0.1927,-0.1804,-0.18,-0.1796,-0.1793,0,-0.1686,-0.169,-0.1731,-0.1791,-0.1852,-0.1928,-0.2016,-0.2044,-0.2154,-0.2195,-0.2235,-0.2251,-0.2258,-0.2115,-0.2115,-0.2095,-0.1986,-0.2044,-0.1893,-0.1498,-0.1529,-0.1489,-0.1815,-0.1758,-0.1761,-0.1764,-0.1766,-0.1767,-0.1664,-0.1665,-0.1692,-0.1746,-0.1814,-0.1863,-0.188,-0.1955,-0.1996,-0.1989,-0.2094,-0.1984,-0.1815,-0.1764,-0.1785,-0.1549,-0.1783,-0.1427,-0.1477,-0.157,-0.1491,-0.1775,-0.1686,-0.1689,-0.1691,-0.1693,-0.1695,0,-0.1639,-0.1626,-0.1663,-0.1701,-0.1736,-0.1794,-0.1853,-0.1823,-0.1808,-0.1753,-0.1744,-0.1397,-0.1235,-0.1118,-0.0911,-0.0891,-0.095,-0.0898,-0.0841,-0.0864,-0.1065,-0.0978,-0.0695,-0.0695,-0.0695,-0.0695,-0.0696,-0.0696,-0.1621,-0.1605,-0.1599,-0.1605,-0.1636,-0.1623,-0.1621,-0.1565,-0.148,-0.1224,-0.096,-0.0837,-0.057,-0.0377,-0.025,-0.0319,-0.0353,-0.0416,-0.0562,-0.0535,-0.0584,-0.0631,-0.0539,-0.0169,-0.0169,-0.0223,-0.0223,-0.0223]},{"header":{"parameterUnit":"m.s-1","parameterCategory":2,"la1":30.2991,"la2":30.254,"lo1":-89.0895,"lo2":-89.0444,"dy":0.0017,"dx":0.0017,"nx":28,"ny":28,"refTime":"2025-03-25T03:00:00:Z","depth":"0","parameterNumber":3,"parameterNumberName":"V-component_of_CURRENTS"},"data":[0,0,0,0,0,0,0,0,0,0,0,0,0,0,0,0,0,0,0,0,0,0,0,0,0,0,0,0,0,0,0,0,0,0,0,0,0,0,0,0,0,0,0,0,0,0,0,0,0,0,0,0,0,0,0,0,0,0,-0.0897,-0.0897,0,-0.0852,-0.0851,-0.0851,-0.081,-0.0809,-0.0809,-0.0809,-0.0672,-0.0669,-0.0666,0,0,0,0,0,0,0,0,0,0,0,0,0,-0.0909,-0.0909,-0.0897,-0.0897,-0.0896,-0.0852,-0.0851,-0.0851,-0.081,-0.0809,-0.0809,-0.0809,-0.0673,-0.0669,-0.0665,0,0,0,0,0,0,0,0,0,0,0,0,0,-0.0886,-0.0909,-0.0897,-0.0873,-0.087,-0.0852,-0.0851,-0.085,-0.081,-0.0809,-0.0809,-0.0809,-0.0675,-0.067,-0.0665,-0.0641,0,0,-0.0649,-0.0647,0,0,0,0,0,0,0,0,-0.0887,-0.0885,-0.0876,-0.0874,-0.0871,-0.0838,-0.0806,-0.0777,-0.081,-0.083,-0.0809,-0.0809,-0.0721,-0.0712,-0.0702,-0.0635,-0.0629,-0.0649,-0.0646,-0.0643,-0.0642,0,0,0,0,0,0,0,-0.0889,-0.0887,-0.0877,-0.0876,-0.0873,-0.0851,-0.0847,-0.08,-0.0775,-0.0828,-0.0826,-0.0825,-0.0719,-0.0708,-0.0699,-0.0627,-0.0649,-0.0644,-0.0641,-0.0639,-0.0531,-0.0531,0,0,0,0,0,0,-0.0902,-0.0889,-0.0878,-0.0876,-0.0881,-0.0851,-0.0847,-0.0847,-0.0777,-0.0768,-0.0825,-0.0823,-0.0716,-0.0705,-0.0694,-0.066,-0.0644,-0.0639,-0.0636,-0.0531,-0.0531,-0.0531,0,0,0,0,0,0,-0.0902,-0.0902,-0.088,-0.0883,-0.0879,-0.0852,-0.0852,-0.0847,-0.0835,-0.0776,-0.0764,-0.082,-0.0716,-0.0701,-0.0659,-0.0654,-0.0636,-0.0632,-0.0531,-0.0531,-0.0531,-0.0593,0,0,0,0,0,0,-0.0903,-0.0902,-0.0907,-0.0884,-0.0879,-0.0872,-0.0853,-0.0846,-0.0836,-0.0833,-0.0768,-0.0755,-0.0714,-0.0667,-0.0654,-0.0647,-0.0628,-0.0531,-0.0531,-0.0531,-0.0591,-0.0596,-0.06,0,0,0,0,0,-0.0904,-0.0915,-0.0908,-0.0907,-0.0887,-0.0872,-0.0868,-0.0845,-0.0837,-0.0833,-0.0794,-0.0757,-0.0659,-0.0663,-0.0647,-0.0639,-0.053,-0.0531,-0.0531,-0.0589,-0.0595,-0.06,0,0,0,0,0,0,-0.0924,-0.0911,-0.0903,-0.091,-0.0894,-0.0866,-0.0864,-0.085,-0.0817,-0.0813,-0.0757,-0.0742,-0.0704,-0.0665,-0.0671,-0.061,-0.0589,-0.0586,-0.0638,-0.0643,-0.0647,-0.0651,-0.0624,0,0,0,0,0,-0.0932,-0.0935,-0.0917,-0.0921,-0.0915,-0.089,-0.0882,-0.0868,-0.0839,-0.0825,-0.0781,-0.0735,-0.0694,-0.0665,-0.0623,-0.0587,-0.0561,-0.0572,-0.0577,-0.0581,-0.0574,-0.0536,-0.0536,-0.0533,-0.0533,-0.0533,0,0,-0.0941,-0.0935,-0.0936,-0.0926,-0.091,-0.0901,-0.0884,-0.0875,-0.0864,-0.0813,-0.0783,-0.0747,-0.0689,-0.0654,-0.0633,-0.0619,-0.0575,-0.0581,-0.0585,-0.0576,-0.0536,-0.0536,-0.0537,-0.0533,-0.0533,-0.0533,0,0,-0.0956,-0.0955,-0.0957,-0.0946,-0.0931,-0.0915,-0.0915,-0.0889,-0.0874,-0.0846,-0.081,-0.0776,-0.0709,-0.0672,-0.0643,-0.0643,-0.0602,-0.063,-0.0646,-0.061,-0.061,-0.061,-0.0608,-0.0606,-0.0628,-0.0628,-0.0628,0,-0.0967,-0.0966,-0.0955,-0.0952,-0.0944,-0.0923,-0.0919,-0.0902,-0.0866,-0.0851,-0.0843,-0.0759,-0.0716,-0.0669,-0.0674,-0.0652,-0.0636,-0.0634,-0.0616,-0.0615,-0.0613,-0.0611,-0.0609,-0.0631,-0.0631,-0.063,-0.063,0,-0.0978,-0.0975,-0.0976,-0.0963,-0.0954,-0.0949,-0.0928,-0.0916,-0.0899,-0.0876,-0.0835,-0.0787,-0.0734,-0.0722,-0.0695,-0.0662,-0.0659,-0.0632,-0.0606,-0.0618,-0.0615,-0.0611,-0.0635,-0.0634,-0.0633,-0.0633,0,0,-0.1004,-0.0987,-0.0986,-0.098,-0.096,-0.0955,-0.0941,-0.0918,-0.0908,-0.0875,-0.0853,-0.0796,-0.0774,-0.074,-0.0706,-0.0677,-0.0668,-0.0654,-0.065,-0.0658,-0.0613,-0.0578,-0.0571,-0.0637,-0.0636,-0.0635,-0.0627,0,-0.1012,-0.101,-0.0997,-0.0991,-0.0986,-0.0965,-0.0953,-0.0932,-0.0909,-0.0885,-0.0841,-0.0805,-0.0779,-0.076,-0.0727,-0.0677,-0.0657,-0.0674,-0.0594,-0.0592,-0.0563,-0.0564,-0.0461,-0.044,-0.0623,-0.0623,-0.0622,0,-0.1023,-0.1019,-0.1017,-0.1001,-0.0997,-0.0991,-0.0972,-0.096,-0.0923,-0.0904,-0.0865,-0.0829,-0.0784,-0.0763,-0.0687,-0.07,-0.0661,-0.0628,-0.0627,-0.0563,-0.0549,-0.045,-0.0426,-0.0296,-0.0617,-0.0617,-0.0617,0,-0.1045,-0.1033,-0.1032,-0.1027,-0.1007,-0.1003,-0.0994,-0.0964,-0.0959,-0.0917,-0.0911,-0.0843,-0.0823,-0.0753,-0.0697,-0.0685,-0.0626,-0.0596,-0.0533,-0.0532,-0.041,-0.0399,-0.0248,-0.054,-0.054,-0.054,-0.054,0,-0.1058,-0.1056,-0.1043,-0.1043,-0.1046,-0.1024,-0.1024,-0.1005,-0.0983,-0.0989,-0.0924,-0.0925,-0.0818,-0.0776,-0.0709,-0.062,-0.0633,-0.0533,-0.0516,-0.0433,-0.0424,-0.0277,-0.0271,-0.054,-0.054,-0.054,-0.054,0,-0.1076,-0.1067,-0.1069,-0.1056,-0.1056,-0.106,-0.1058,-0.1063,-0.1034,-0.1043,-0.1035,-0.0985,-0.0926,-0.0832,-0.0732,-0.0643,-0.0485,-0.0527,-0.0458,-0.043,-0.0218,-0.0221,-0.0148,-0.0079,-0.0431,-0.043,-0.0429,0,-0.1082,-0.1084,-0.1088,-0.1102,-0.1098,-0.1104,-0.1116,-0.1092,-0.1106,-0.1096,-0.1113,-0.1056,-0.1037,-0.0876,-0.0681,-0.0534,-0.0473,-0.0356,-0.0294,-0.0185,-0.0176,-0.0215,-0.0166,-0.0176,-0.0173,-0.0171,-0.0169,0,-0.1091,-0.1096,-0.1101,-0.114,-0.1159,-0.1177,-0.1194,-0.1216,-0.1208,-0.1212,-0.1241,-0.1223,-0.1039,-0.081,-0.0579,-0.0474,-0.0252,-0.0302,-0.018,0.0044,0.0005,0.0073,-0.0241,-0.0148,-0.015,-0.0152,-0.0153,-0.0154,-0.11,-0.1115,-0.114,-0.118,-0.121,-0.1258,-0.1287,-0.1315,-0.1346,-0.1326,-0.1315,-0.1152,-0.0831,-0.0478,-0.0395,-0.0014,-0.0123,0.0132,0.0115,0.0062,0.0155,-0.0137,-0.0026,-0.0028,-0.0029,-0.003,-0.0031,0,-0.1116,-0.1142,-0.1182,-0.1236,-0.1293,-0.1291,-0.1347,-0.1378,-0.1438,-0.1279,-0.1257,-0.0698,-0.0426,-0.0101,0.034,0.0453,0.0441,0.0497,0.051,0.054,0.0326,0.0372,0.0567,0.0567,0.0567,0.0566,0.0566,0.0566,-0.1125,-0.1172,-0.1204,-0.1306,-0.1345,-0.1418,-0.1455,-0.1486,-0.1379,-0.106,-0.0614,-0.027,0.0314,0.0541,0.0846,0.0843,0.0895,0.0824,0.0825,0.0741,0.0708,0.0675,0.0728,0.0994,0.0994,0.1101,0.1102,0.1103]}],[{"header":{"parameterUnit":"m.s-1","parameterCategory":2,"la1":30.2991,"la2":30.254,"lo1":-89.0895,"lo2":-89.0444,"dy":0.0017,"dx":0.0017,"nx":28,"ny":28,"refTime":"2025-03-25T03:00:00:Z","depth":"2","parameterNumber":2,"parameterNumberName":"U-component_of_CURRENTS"},"data":[0,0,0,0,0,0,0,0,0,0,0,0,0,0,0,0,0,0,0,0,0,0,0,0,0,0,0,0,0,0,0,0,0,0,0,0,0,0,0,0,0,0,0,0,0,0,0,0,0,0,0,0,0,0,0,0,0,0,-0.1205,-0.1204,0,-0.1139,-0.1138,-0.1137,-0.1109,-0.1109,-0.1109,-0.111,-0.1043,-0.1041,-0.1039,0,0,0,0,0,0,0,0,0,0,0,0,0,-0.1198,-0.1199,-0.1205,-0.1204,-0.1203,-0.1139,-0.1138,-0.1137,-0.1109,-0.1109,-0.1109,-0.111,-0.1044,-0.1042,-0.1039,0,0,0,0,0,0,0,0,0,0,0,0,0,-0.1172,-0.1199,-0.1205,-0.1183,-0.118,-0.1139,-0.1138,-0.1137,-0.1109,-0.1109,-0.111,-0.111,-0.1045,-0.1042,-0.1039,-0.1012,0,0,-0.103,-0.1028,0,0,0,0,0,0,0,0,-0.1174,-0.1173,-0.1187,-0.1184,-0.1182,-0.1134,-0.1111,-0.1096,-0.1109,-0.1134,-0.111,-0.111,-0.1074,-0.1069,-0.1053,-0.1009,-0.1006,-0.1029,-0.1028,-0.1026,-0.1025,0,0,0,0,0,0,0,-0.1176,-0.1175,-0.1177,-0.1186,-0.1183,-0.1139,-0.1137,-0.1108,-0.1102,-0.1132,-0.113,-0.1125,-0.1073,-0.1056,-0.1052,-0.1005,-0.1029,-0.1027,-0.1025,-0.1024,-0.0976,-0.0976,0,0,0,0,0,0,-0.1193,-0.1177,-0.1179,-0.1175,-0.1181,-0.114,-0.1137,-0.1147,-0.1102,-0.1096,-0.1125,-0.1124,-0.1061,-0.1055,-0.1049,-0.1073,-0.1026,-0.1023,-0.1022,-0.0975,-0.0976,-0.0976,0,0,0,0,0,0,-0.1193,-0.1194,-0.1182,-0.1175,-0.117,-0.1141,-0.1152,-0.1146,-0.1139,-0.1097,-0.1091,-0.1126,-0.1061,-0.1053,-0.1037,-0.1068,-0.1022,-0.1019,-0.0974,-0.0975,-0.0976,-0.1083,0,0,0,0,0,0,-0.1194,-0.1195,-0.1208,-0.1177,-0.1172,-0.1181,-0.1151,-0.1144,-0.1136,-0.1134,-0.1095,-0.1089,-0.1061,-0.1042,-0.1034,-0.1063,-0.1017,-0.0974,-0.0975,-0.0976,-0.1078,-0.1087,-0.1094,0,0,0,0,0,-0.1194,-0.1215,-0.1209,-0.1209,-0.1191,-0.1183,-0.1177,-0.1153,-0.1136,-0.1146,-0.1113,-0.1091,-0.1043,-0.104,-0.1031,-0.1059,-0.0973,-0.0975,-0.0976,-0.1075,-0.1085,-0.1094,0,0,0,0,0,0,-0.1222,-0.1213,-0.1206,-0.1225,-0.1215,-0.1179,-0.1178,-0.116,-0.1139,-0.1134,-0.1092,-0.1084,-0.1083,-0.1049,-0.1047,-0.1046,-0.1006,-0.1005,-0.1085,-0.1094,-0.1102,-0.111,-0.1014,0,0,0,0,0,-0.1234,-0.1242,-0.1231,-0.1242,-0.1241,-0.1209,-0.1201,-0.1188,-0.1164,-0.1155,-0.1128,-0.1096,-0.1077,-0.1069,-0.1044,-0.1039,-0.1033,-0.1051,-0.1059,-0.1066,-0.1065,-0.1069,-0.1078,-0.098,-0.098,-0.098,0,0,-0.1242,-0.124,-0.1243,-0.1247,-0.1231,-0.1239,-0.1206,-0.1201,-0.121,-0.115,-0.115,-0.1121,-0.1081,-0.1082,-0.1079,-0.1061,-0.11,-0.1068,-0.1074,-0.1069,-0.1072,-0.1081,-0.109,-0.0981,-0.0981,-0.0981,0,0,-0.126,-0.1268,-0.1279,-0.1281,-0.1272,-0.126,-0.1266,-0.1244,-0.124,-0.1232,-0.1198,-0.1185,-0.1149,-0.1136,-0.1121,-0.1151,-0.114,-0.1148,-0.1199,-0.1204,-0.1213,-0.122,-0.1273,-0.1284,-0.1155,-0.1155,-0.1155,0,-0.127,-0.1289,-0.1281,-0.1296,-0.1299,-0.1277,-0.1293,-0.1289,-0.1266,-0.1268,-0.1247,-0.1209,-0.1174,-0.1184,-0.1195,-0.1172,-0.1187,-0.1172,-0.1217,-0.1224,-0.123,-0.1282,-0.1293,-0.116,-0.116,-0.1159,-0.1159,0,-0.129,-0.1313,-0.1321,-0.1336,-0.1344,-0.1353,-0.1354,-0.1362,-0.1349,-0.134,-0.1345,-0.1302,-0.1278,-0.1276,-0.124,-0.127,-0.1277,-0.123,-0.1201,-0.1247,-0.1298,-0.1308,-0.1168,-0.1166,-0.1164,-0.1163,0,0,-0.1278,-0.1327,-0.1326,-0.1346,-0.1367,-0.1369,-0.1403,-0.142,-0.1436,-0.1425,-0.1446,-0.1415,-0.1391,-0.1371,-0.134,-0.1345,-0.1409,-0.1311,-0.1308,-0.1379,-0.1468,-0.1397,-0.1401,-0.1375,-0.1376,-0.1377,-0.1507,0,-0.129,-0.1334,-0.1353,-0.139,-0.1414,-0.1425,-0.1456,-0.1472,-0.1479,-0.1498,-0.1479,-0.1479,-0.1431,-0.1423,-0.1424,-0.1396,-0.143,-0.1381,-0.1398,-0.14,-0.1342,-0.1406,-0.1139,-0.1223,-0.1516,-0.1517,-0.1518,0,-0.1286,-0.1324,-0.1369,-0.1425,-0.1434,-0.1456,-0.1496,-0.1521,-0.1558,-0.1564,-0.1575,-0.1558,-0.1569,-0.1512,-0.1526,-0.15,-0.1496,-0.1485,-0.1489,-0.1384,-0.1344,-0.1212,-0.1229,-0.1534,-0.1532,-0.1531,-0.153,0,-0.1258,-0.1323,-0.136,-0.1378,-0.1443,-0.1465,-0.1495,-0.1538,-0.1559,-0.161,-0.1631,-0.1641,-0.165,-0.1633,-0.1612,-0.1571,-0.1644,-0.1576,-0.1533,-0.1531,-0.1282,-0.1254,-0.1608,-0.1608,-0.1607,-0.1607,-0.1607,0,-0.1251,-0.1276,-0.1352,-0.137,-0.1415,-0.1461,-0.1496,-0.1539,-0.1589,-0.1613,-0.1657,-0.1675,-0.1677,-0.171,-0.1671,-0.1646,-0.1695,-0.156,-0.1551,-0.1316,-0.1291,-0.152,-0.1508,-0.1612,-0.1611,-0.161,-0.1609,0,-0.1209,-0.1256,-0.1304,-0.1382,-0.1402,-0.1432,-0.149,-0.149,-0.1583,-0.1623,-0.1643,-0.1721,-0.1757,-0.1789,-0.1793,-0.1723,-0.1701,-0.1692,-0.1448,-0.1405,-0.1577,-0.1569,-0.1634,-0.1632,-0.1631,-0.163,-0.1629,0,-0.1193,-0.1213,-0.1297,-0.1317,-0.1352,-0.1397,-0.1389,-0.1463,-0.1452,-0.1622,-0.1603,-0.1732,-0.171,-0.175,-0.1629,-0.1591,-0.1733,-0.1416,-0.1253,-0.1592,-0.1577,-0.1571,-0.1565,-0.1,-0.0994,-0.0989,-0.0985,0,-0.1157,-0.1182,-0.1222,-0.1273,-0.1275,-0.1282,-0.1289,-0.1281,-0.1357,-0.1418,-0.1485,-0.1517,-0.1529,-0.1342,-0.1354,-0.1295,-0.1382,-0.1312,-0.1726,-0.1025,-0.1,-0.0984,-0.0997,-0.0941,-0.0945,-0.0948,-0.0951,-0.0953,-0.1113,-0.113,-0.1168,-0.1205,-0.1206,-0.1151,-0.1104,-0.1094,-0.1089,-0.1136,-0.1254,-0.1224,-0.1197,-0.0986,-0.0962,-0.0957,-0.1042,-0.1,-0.1012,-0.103,-0.0924,-0.0895,-0.0802,-0.0805,-0.0808,-0.0811,-0.0813,0,-0.1036,-0.1053,-0.1089,-0.1086,-0.1028,-0.1073,-0.1002,-0.0926,-0.0855,-0.089,-0.0917,-0.0753,-0.0593,-0.0661,-0.0468,-0.0448,-0.0411,-0.0535,-0.0452,-0.0491,-0.0527,-0.0395,-0.0134,-0.0133,-0.0133,-0.0133,0,0,-0.0987,-0.0974,-0.0992,-0.0896,-0.0889,-0.0752,-0.069,-0.0628,-0.0593,-0.0543,-0.0485,-0.0489,-0.0494,-0.027,-0.0239,-0.0166,-0.0347,-0.0155,-0.0669,-0.0601,-0.0638,-0.0734,-0.0566,0,0,0,0,0]},{"header":{"parameterUnit":"m.s-1","parameterCategory":2,"la1":30.2991,"la2":30.254,"lo1":-89.0895,"lo2":-89.0444,"dy":0.0017,"dx":0.0017,"nx":28,"ny":28,"refTime":"2025-03-25T03:00:00:Z","depth":"2","parameterNumber":3,"parameterNumberName":"V-component_of_CURRENTS"},"data":[0,0,0,0,0,0,0,0,0,0,0,0,0,0,0,0,0,0,0,0,0,0,0,0,0,0,0,0,0,0,0,0,0,0,0,0,0,0,0,0,0,0,0,0,0,0,0,0,0,0,0,0,0,0,0,0,0,0,0.0483,0.0483,0,0.0514,0.0514,0.0515,0.0491,0.049,0.0489,0.0489,0.0441,0.0441,0.0441,0,0,0,0,0,0,0,0,0,0,0,0,0,0.0387,0.0389,0.0483,0.0483,0.0484,0.0514,0.0514,0.0515,0.0491,0.049,0.0489,0.0488,0.0441,0.0441,0.0441,0,0,0,0,0,0,0,0,0,0,0,0,0,0.0423,0.0389,0.0483,0.0477,0.0476,0.0514,0.0514,0.0515,0.0492,0.049,0.0489,0.0488,0.0442,0.0441,0.0441,0.0465,0,0,0.0439,0.0438,0,0,0,0,0,0,0,0,0.0421,0.0427,0.0477,0.0477,0.0477,0.0498,0.0463,0.0495,0.0492,0.0485,0.0489,0.0487,0.0455,0.0453,0.0462,0.0463,0.0461,0.0439,0.0438,0.0438,0.0438,0,0,0,0,0,0,0,0.0419,0.0425,0.0494,0.0478,0.0478,0.0467,0.047,0.0469,0.0475,0.0485,0.0484,0.049,0.0454,0.0463,0.046,0.046,0.0439,0.0438,0.0438,0.0438,0.0444,0.0445,0,0,0,0,0,0,0.042,0.0423,0.0493,0.0495,0.0446,0.047,0.0474,0.0492,0.0477,0.0474,0.0491,0.0488,0.0464,0.0461,0.0458,0.0459,0.0438,0.0438,0.0437,0.0444,0.0444,0.0445,0,0,0,0,0,0,0.0418,0.0426,0.0492,0.0459,0.0467,0.0473,0.0494,0.0493,0.0481,0.0482,0.0477,0.0476,0.0463,0.0459,0.0452,0.0458,0.0437,0.0437,0.0443,0.0444,0.0444,0.0478,0,0,0,0,0,0,0.0415,0.0426,0.0432,0.046,0.0469,0.0504,0.0495,0.0495,0.0488,0.0485,0.0468,0.0464,0.0462,0.0453,0.0451,0.0457,0.0436,0.0442,0.0443,0.0444,0.0476,0.048,0.0483,0,0,0,0,0,0.0412,0.0423,0.0432,0.044,0.048,0.0505,0.0508,0.0506,0.0489,0.0488,0.0479,0.0463,0.0457,0.0453,0.0451,0.0456,0.0442,0.0443,0.0444,0.0475,0.0479,0.0483,0,0,0,0,0,0,0.0389,0.0423,0.0433,0.0456,0.0476,0.0501,0.0495,0.0497,0.0492,0.0474,0.0472,0.0468,0.0467,0.0456,0.0451,0.0461,0.0446,0.0447,0.047,0.0474,0.0477,0.0461,0.0436,0,0,0,0,0,0.039,0.0399,0.0437,0.0451,0.0458,0.0474,0.0479,0.0479,0.0484,0.0478,0.0471,0.0463,0.0477,0.0468,0.0472,0.0473,0.0457,0.0475,0.0478,0.0481,0.0467,0.048,0.0484,0.0449,0.0449,0.0449,0,0,0.0383,0.0403,0.0408,0.0445,0.0454,0.0467,0.0471,0.0471,0.0481,0.0474,0.0466,0.0474,0.0481,0.0492,0.0489,0.0477,0.0479,0.0483,0.0485,0.0469,0.0482,0.0485,0.0488,0.0449,0.0449,0.0449,0,0,0.0364,0.0393,0.0387,0.0406,0.042,0.0443,0.0439,0.0456,0.0459,0.0463,0.0472,0.0487,0.0478,0.0506,0.0516,0.0537,0.0502,0.0526,0.0523,0.0538,0.054,0.0543,0.0511,0.051,0.0522,0.0522,0.0522,0,0.0352,0.0357,0.0388,0.039,0.0398,0.0429,0.0425,0.0451,0.0462,0.0469,0.0454,0.0485,0.0493,0.0536,0.0541,0.0547,0.0521,0.051,0.0542,0.0544,0.0546,0.0512,0.0511,0.0524,0.0523,0.0523,0.0523,0,0.0327,0.0332,0.0328,0.0346,0.0368,0.0366,0.0412,0.0424,0.0427,0.0452,0.0478,0.0506,0.0516,0.0537,0.054,0.0567,0.0533,0.0552,0.0532,0.0552,0.0515,0.0513,0.0526,0.0525,0.0525,0.0524,0,0,0.0292,0.0305,0.0299,0.0294,0.0338,0.0347,0.0382,0.042,0.0427,0.0458,0.0466,0.0523,0.0527,0.0539,0.0562,0.0581,0.0578,0.0556,0.0556,0.0522,0.056,0.0608,0.061,0.0594,0.0594,0.0595,0.0522,0,0.0254,0.0226,0.026,0.0249,0.0242,0.0299,0.0327,0.0371,0.0405,0.0426,0.0488,0.0499,0.0535,0.0525,0.0559,0.0571,0.0575,0.0593,0.0546,0.0543,0.0585,0.0612,0.0562,0.0501,0.052,0.052,0.052,0,0.0212,0.0198,0.0163,0.0184,0.0187,0.0196,0.0237,0.0269,0.0342,0.0361,0.041,0.0444,0.0489,0.0505,0.0543,0.0541,0.0539,0.0555,0.0553,0.0584,0.059,0.0488,0.0497,0.0516,0.0516,0.0517,0.0517,0,0.0138,0.0136,0.0096,0.0102,0.0135,0.0134,0.0161,0.0232,0.0251,0.031,0.031,0.0388,0.0388,0.0433,0.047,0.0486,0.0492,0.0525,0.057,0.057,0.0513,0.051,0.054,0.054,0.0541,0.0541,0.0541,0,0.0085,0.0058,0.0047,0.0024,-0.0005,0.005,0.0043,0.0091,0.0142,0.0154,0.0251,0.0267,0.0365,0.0394,0.0437,0.0492,0.0464,0.0564,0.0569,0.0523,0.0522,0.0527,0.0526,0.0538,0.0539,0.0539,0.054,0,0.0019,0.0008,-0.0038,-0.0045,-0.0047,-0.0071,-0.0042,-0.004,0.0017,0.0032,0.0037,0.0145,0.0193,0.0286,0.0344,0.0436,0.0491,0.0509,0.0431,0.0432,0.0558,0.056,0.0559,0.0561,0.0562,0.0563,0.0564,0,-0.0014,-0.0057,-0.0112,-0.0145,-0.0155,-0.0174,-0.0182,-0.0121,-0.0115,-0.0039,-0.0048,0.0018,0.0095,0.022,0.0347,0.0439,0.0458,0.0477,0.0545,0.0563,0.0566,0.0566,0.0567,0.0451,0.0451,0.0451,0.0451,0,-0.0077,-0.0117,-0.0162,-0.024,-0.0277,-0.0296,-0.0305,-0.0315,-0.0244,-0.0213,-0.0159,-0.0083,0.0057,0.0197,0.0351,0.0407,0.0476,0.0484,0.0502,0.0487,0.0465,0.0468,0.047,0.045,0.045,0.045,0.045,0.045,-0.013,-0.0187,-0.0265,-0.0328,-0.0368,-0.0403,-0.0416,-0.0405,-0.0385,-0.0295,-0.0223,-0.0066,0.0067,0.0319,0.037,0.0436,0.0482,0.0529,0.0527,0.0525,0.0559,0.0545,0.0546,0.0546,0.0547,0.0547,0.0548,0,-0.0179,-0.0253,-0.0333,-0.0405,-0.0449,-0.0454,-0.048,-0.0473,-0.0444,-0.0305,-0.0194,-0.0022,0.016,0.0267,0.0378,0.0481,0.0442,0.0479,0.0413,0.0415,0.0417,0.0443,0.0399,0.0399,0.0398,0.0398,0,0,-0.021,-0.0306,-0.0356,-0.0454,-0.0496,-0.0536,-0.0549,-0.053,-0.0437,-0.0302,-0.0142,0.0095,0.0228,0.0286,0.0346,0.0375,0.0372,0.0363,0.0478,0.0394,0.0394,0.0444,0.0489,0,0,0,0,0]}],[{"header":{"parameterUnit":"m.s-1","parameterCategory":2,"la1":30.2991,"la2":30.254,"lo1":-89.0895,"lo2":-89.0444,"dy":0.0017,"dx":0.0017,"nx":28,"ny":28,"refTime":"2025-03-25T03:00:00:Z","depth":"4","parameterNumber":2,"parameterNumberName":"U-component_of_CURRENTS"},"data":[0,0,0,0,0,0,0,0,0,0,0,0,0,0,0,0,0,0,0,0,0,0,0,0,0,0,0,0,0,0,0,0,0,0,0,0,0,0,0,0,0,0,0,0,0,0,0,0,0,0,0,0,0,0,0,0,0,0,-0.0502,-0.0502,0,-0.0496,-0.0496,-0.0496,-0.0488,-0.0488,-0.0488,-0.0488,-0.0514,-0.0514,-0.0515,0,0,0,0,0,0,0,0,0,0,0,0,0,-0.0531,-0.053,-0.0502,-0.0502,-0.0502,-0.0496,-0.0496,-0.0496,-0.0488,-0.0488,-0.0488,-0.0488,-0.0513,-0.0514,-0.0515,0,0,0,0,0,0,0,0,0,0,0,0,0,-0.052,-0.053,-0.0502,-0.0498,-0.0497,-0.0496,-0.0496,-0.0496,-0.0488,-0.0488,-0.0488,-0.0488,-0.0513,-0.0514,-0.0515,-0.0525,0,0,-0.0519,-0.0519,0,0,0,0,0,0,0,0,-0.0521,-0.0519,-0.0498,-0.0498,-0.0497,-0.0493,-0.0516,-0.0508,-0.0488,-0.0491,-0.0488,-0.0488,-0.051,-0.0512,-0.051,-0.0526,-0.0527,-0.0519,-0.052,-0.052,-0.052,0,0,0,0,0,0,0,-0.0522,-0.052,-0.0499,-0.0498,-0.0498,-0.0505,-0.0503,-0.0514,-0.0501,-0.0491,-0.049,-0.0491,-0.051,-0.0508,-0.051,-0.0528,-0.0519,-0.052,-0.0521,-0.0521,-0.0583,-0.0584,0,0,0,0,0,0,-0.0522,-0.052,-0.0499,-0.0499,-0.051,-0.0504,-0.0502,-0.0494,-0.0501,-0.0501,-0.0491,-0.049,-0.0506,-0.0509,-0.0511,-0.055,-0.052,-0.0521,-0.0522,-0.0582,-0.0584,-0.0585,0,0,0,0,0,0,-0.0523,-0.052,-0.0499,-0.0511,-0.0508,-0.0504,-0.0495,-0.0494,-0.0497,-0.05,-0.0502,-0.0495,-0.0506,-0.051,-0.053,-0.055,-0.0522,-0.0523,-0.0581,-0.0583,-0.0584,-0.061,0,0,0,0,0,0,-0.0523,-0.052,-0.0516,-0.051,-0.0508,-0.0505,-0.0495,-0.0494,-0.0498,-0.0497,-0.0505,-0.0507,-0.0507,-0.0528,-0.0531,-0.0551,-0.0524,-0.058,-0.0582,-0.0584,-0.0608,-0.0612,-0.0616,0,0,0,0,0,-0.0524,-0.0518,-0.0516,-0.0513,-0.0501,-0.0505,-0.0505,-0.0501,-0.0498,-0.0503,-0.051,-0.0507,-0.0542,-0.053,-0.0533,-0.0554,-0.0579,-0.0581,-0.0583,-0.0606,-0.0612,-0.0616,0,0,0,0,0,0,-0.0524,-0.0516,-0.0514,-0.0503,-0.0508,-0.0504,-0.0506,-0.0506,-0.0514,-0.0515,-0.0517,-0.052,-0.0544,-0.0547,-0.0534,-0.0578,-0.0561,-0.0564,-0.0578,-0.0582,-0.0586,-0.0581,-0.0525,0,0,0,0,0,-0.0523,-0.0515,-0.0516,-0.0507,-0.0511,-0.0511,-0.0512,-0.0513,-0.0518,-0.052,-0.053,-0.0541,-0.0555,-0.0566,-0.0577,-0.0602,-0.0588,-0.0618,-0.0622,-0.0625,-0.0624,-0.0616,-0.0619,-0.0592,-0.0592,-0.0592,0,0,-0.0519,-0.0514,-0.0508,-0.0507,-0.0508,-0.052,-0.0511,-0.0516,-0.0529,-0.0524,-0.0546,-0.0555,-0.0564,-0.059,-0.0602,-0.0595,-0.0627,-0.0628,-0.0631,-0.0628,-0.0619,-0.0621,-0.0623,-0.0593,-0.0593,-0.0593,0,0,-0.0512,-0.0505,-0.0502,-0.0514,-0.0521,-0.0525,-0.053,-0.0539,-0.0545,-0.0567,-0.0568,-0.0584,-0.0611,-0.0618,-0.0625,-0.0657,-0.0645,-0.0672,-0.0691,-0.0684,-0.0685,-0.0687,-0.0673,-0.0673,-0.0677,-0.0677,-0.0677,0,-0.0509,-0.0505,-0.0504,-0.0515,-0.0527,-0.0531,-0.0546,-0.0554,-0.057,-0.0581,-0.0579,-0.0614,-0.062,-0.0646,-0.0661,-0.0665,-0.066,-0.0671,-0.0687,-0.0688,-0.0689,-0.0675,-0.0674,-0.0678,-0.0678,-0.0678,-0.0678,0,-0.0503,-0.0513,-0.0515,-0.053,-0.0545,-0.0557,-0.0576,-0.0593,-0.0603,-0.0613,-0.0641,-0.0647,-0.0666,-0.0677,-0.0681,-0.0702,-0.0695,-0.0689,-0.0671,-0.0693,-0.0677,-0.0676,-0.0681,-0.068,-0.068,-0.0679,0,0,-0.0463,-0.0503,-0.0504,-0.0526,-0.0557,-0.0567,-0.0598,-0.0623,-0.0642,-0.0658,-0.0679,-0.0702,-0.0705,-0.0713,-0.0719,-0.0719,-0.0721,-0.0715,-0.0714,-0.0695,-0.0705,-0.0671,-0.0666,-0.0722,-0.0722,-0.0722,-0.0691,0,-0.046,-0.048,-0.0508,-0.0544,-0.056,-0.0595,-0.0626,-0.0653,-0.0672,-0.0695,-0.07,-0.0721,-0.0719,-0.0731,-0.0732,-0.0724,-0.072,-0.073,-0.0693,-0.0691,-0.0652,-0.0664,-0.0722,-0.069,-0.069,-0.069,-0.0689,0,-0.0441,-0.0461,-0.0489,-0.0556,-0.0569,-0.06,-0.0649,-0.0678,-0.0714,-0.073,-0.0747,-0.0751,-0.076,-0.075,-0.0736,-0.0746,-0.0731,-0.0718,-0.0716,-0.0672,-0.0655,-0.0664,-0.0687,-0.0687,-0.0688,-0.0688,-0.0688,0,-0.039,-0.0451,-0.047,-0.0491,-0.0563,-0.0596,-0.0638,-0.0686,-0.0713,-0.0747,-0.0761,-0.0772,-0.0771,-0.0757,-0.0734,-0.074,-0.0707,-0.0706,-0.0657,-0.0654,-0.0681,-0.068,-0.069,-0.069,-0.069,-0.0691,-0.0691,0,-0.0363,-0.0385,-0.0455,-0.0467,-0.0512,-0.0577,-0.0629,-0.0667,-0.0722,-0.0746,-0.0773,-0.0775,-0.0774,-0.0757,-0.0737,-0.0689,-0.0705,-0.0657,-0.0644,-0.0694,-0.0695,-0.068,-0.0679,-0.0689,-0.069,-0.069,-0.069,0,-0.0297,-0.0341,-0.037,-0.0452,-0.0486,-0.0514,-0.0623,-0.0659,-0.0713,-0.0741,-0.075,-0.0774,-0.0749,-0.0736,-0.0706,-0.0682,-0.0645,-0.0624,-0.0674,-0.0665,-0.0597,-0.0599,-0.0567,-0.0565,-0.0564,-0.0563,-0.0562,0,-0.0268,-0.027,-0.0337,-0.0364,-0.0407,-0.0476,-0.0533,-0.0631,-0.067,-0.0726,-0.0727,-0.0728,-0.0731,-0.0648,-0.0651,-0.0606,-0.0599,-0.0584,-0.0598,-0.0595,-0.0585,-0.0588,-0.0591,-0.056,-0.056,-0.056,-0.0559,0,-0.0211,-0.0223,-0.0238,-0.0279,-0.0342,-0.0427,-0.0515,-0.0543,-0.0643,-0.0687,-0.0678,-0.0665,-0.0637,-0.0609,-0.0581,-0.0552,-0.0599,-0.0571,-0.0574,-0.0587,-0.0586,-0.0578,-0.0583,-0.0555,-0.0556,-0.0556,-0.0556,0,-0.0163,-0.0147,-0.0159,-0.0197,-0.0267,-0.036,-0.043,-0.0497,-0.0551,-0.0623,-0.0609,-0.0607,-0.062,-0.058,-0.0551,-0.0524,-0.0519,-0.0508,-0.0514,-0.0519,-0.052,-0.0514,-0.0445,0,0,0,0,0,-0.0125,-0.0094,-0.0098,-0.0151,-0.0215,-0.0277,-0.0406,-0.0484,-0.0577,-0.055,-0.0585,-0.0554,-0.0524,-0.0523,-0.0483,-0.0537,-0.0525,-0.0491,-0.0518,-0.0531,-0.0536,-0.0543,0,0,0,0,0,0,-0.0102,-0.0077,-0.0061,-0.0097,-0.0133,-0.0238,-0.0327,-0.0411,-0.0414,-0.048,-0.0458,-0.05,-0.0468,-0.0504,-0.0451,-0.0454,-0.0462,-0.0496,-0.0495,-0.0528,-0.0533,-0.0537,-0.0546,0,0,0,0,0]},{"header":{"parameterUnit":"m.s-1","parameterCategory":2,"la1":30.2991,"la2":30.254,"lo1":-89.0895,"lo2":-89.0444,"dy":0.0017,"dx":0.0017,"nx":28,"ny":28,"refTime":"2025-03-25T03:00:00:Z","depth":"4","parameterNumber":3,"parameterNumberName":"V-component_of_CURRENTS"},"data":[0,0,0,0,0,0,0,0,0,0,0,0,0,0,0,0,0,0,0,0,0,0,0,0,0,0,0,0,0,0,0,0,0,0,0,0,0,0,0,0,0,0,0,0,0,0,0,0,0,0,0,0,0,0,0,0,0,0,-0.0057,-0.0057,0,-0.0082,-0.0083,-0.0083,-0.0078,-0.0078,-0.0078,-0.0077,-0.0085,-0.0085,-0.0086,0,0,0,0,0,0,0,0,0,0,0,0,0,0.0028,0.0026,-0.0057,-0.0057,-0.0057,-0.0082,-0.0083,-0.0083,-0.0079,-0.0078,-0.0078,-0.0077,-0.0085,-0.0085,-0.0086,0,0,0,0,0,0,0,0,0,0,0,0,0,-0.0005,0.0025,-0.0056,-0.0058,-0.0059,-0.0082,-0.0083,-0.0083,-0.0079,-0.0078,-0.0077,-0.0077,-0.0084,-0.0085,-0.0086,-0.0105,0,0,-0.0089,-0.0089,0,0,0,0,0,0,0,0,-0.0003,-0.0008,-0.0058,-0.0058,-0.0059,-0.0077,-0.0056,-0.0089,-0.0079,-0.0071,-0.0077,-0.0076,-0.0081,-0.0082,-0.0088,-0.0105,-0.0105,-0.0089,-0.009,-0.009,-0.009,0,0,0,0,0,0,0,-0.0001,-0.0006,-0.0066,-0.0058,-0.0059,-0.0047,-0.0051,-0.0062,-0.0079,-0.0071,-0.0071,-0.0075,-0.0081,-0.0088,-0.0089,-0.0105,-0.0089,-0.009,-0.009,-0.0091,-0.0121,-0.0121,0,0,0,0,0,0,-0.0001,-0.0005,-0.0066,-0.0067,-0.0029,-0.0049,-0.0054,-0.0071,-0.0079,-0.008,-0.0075,-0.0074,-0.0086,-0.0087,-0.0089,-0.0091,-0.009,-0.0091,-0.0091,-0.012,-0.0121,-0.0121,0,0,0,0,0,0,0.0001,-0.0006,-0.0065,-0.0035,-0.0042,-0.0052,-0.0071,-0.0072,-0.0077,-0.0082,-0.0082,-0.0078,-0.0086,-0.0087,-0.0098,-0.0092,-0.0091,-0.0092,-0.012,-0.0121,-0.0121,-0.0109,0,0,0,0,0,0,0.0003,-0.0006,-0.002,-0.0036,-0.0044,-0.0081,-0.0072,-0.0073,-0.008,-0.0079,-0.0085,-0.0085,-0.0086,-0.0097,-0.0099,-0.0094,-0.0093,-0.012,-0.012,-0.0121,-0.0109,-0.0109,-0.0109,0,0,0,0,0,0.0006,-0.0022,-0.0021,-0.0028,-0.0063,-0.0081,-0.0084,-0.0087,-0.0081,-0.0088,-0.0089,-0.0085,-0.0101,-0.0098,-0.01,-0.0095,-0.012,-0.012,-0.0121,-0.0109,-0.0109,-0.0109,0,0,0,0,0,0,0.0007,-0.0025,-0.0024,-0.006,-0.0067,-0.008,-0.0092,-0.0089,-0.0097,-0.0096,-0.0093,-0.0094,-0.01,-0.0104,-0.0101,-0.0106,-0.0108,-0.0109,-0.0098,-0.0098,-0.0098,-0.0086,-0.0093,0,0,0,0,0,0.0001,-0.003,-0.0044,-0.0071,-0.0077,-0.0082,-0.009,-0.0091,-0.0099,-0.0101,-0.0102,-0.0104,-0.0106,-0.0107,-0.0114,-0.0121,-0.0094,-0.0119,-0.0118,-0.0118,-0.0111,-0.0063,-0.0057,-0.0123,-0.0123,-0.0123,0,0,-0.0006,-0.0028,-0.0044,-0.0073,-0.008,-0.0094,-0.0086,-0.0101,-0.0106,-0.0102,-0.0109,-0.0107,-0.011,-0.0114,-0.0116,-0.0114,-0.0086,-0.0119,-0.0119,-0.0111,-0.0063,-0.0056,-0.005,-0.0123,-0.0123,-0.0123,0,0,-0.0034,-0.0052,-0.0083,-0.0091,-0.0107,-0.0108,-0.0111,-0.012,-0.0117,-0.0127,-0.0118,-0.0112,-0.0126,-0.0115,-0.0114,-0.012,-0.0089,-0.0123,-0.0109,-0.0062,-0.0056,-0.005,-0.0004,0.0006,-0.012,-0.012,-0.012,0,-0.0035,-0.008,-0.0091,-0.0115,-0.0121,-0.0113,-0.013,-0.013,-0.0137,-0.0129,-0.013,-0.0119,-0.0124,-0.0107,-0.0108,-0.0117,-0.0083,-0.0107,-0.006,-0.0053,-0.0047,-0.0002,0.001,-0.0119,-0.0119,-0.0119,-0.0119,0,-0.0083,-0.0111,-0.0128,-0.0155,-0.0159,-0.0177,-0.0169,-0.0167,-0.0158,-0.0149,-0.0131,-0.0125,-0.0113,-0.0112,-0.0114,-0.0073,-0.006,-0.0065,-0.0054,-0.0039,0.0007,0.0018,-0.0119,-0.0119,-0.0119,-0.0119,0,0,-0.0097,-0.0153,-0.0155,-0.0171,-0.0182,-0.019,-0.0188,-0.018,-0.0169,-0.0157,-0.0132,-0.0126,-0.0103,-0.0099,-0.0086,-0.0045,0.0022,-0.0034,-0.0032,0.0022,0.0137,0.0111,0.0121,0.0035,0.0037,0.0039,0.0154,0,-0.0126,-0.0186,-0.0196,-0.0226,-0.0249,-0.0232,-0.0226,-0.0211,-0.0191,-0.0164,-0.0127,-0.0109,-0.0103,-0.0089,-0.0044,-0.0001,0.0053,-0.0008,0.0105,0.0109,0.0093,0.0133,0.0045,0.0163,0.0165,0.0167,0.0168,0,-0.0162,-0.0198,-0.0247,-0.0264,-0.0268,-0.0276,-0.0254,-0.0248,-0.02,-0.0179,-0.0134,-0.0105,-0.0046,-0.0043,0.0067,0.0033,0.009,0.0131,0.0136,0.0117,0.0104,0.0142,0.0189,0.0188,0.0186,0.0185,0.0183,0,-0.0174,-0.0222,-0.0265,-0.0276,-0.0296,-0.0298,-0.0291,-0.0254,-0.0238,-0.0181,-0.0157,-0.0082,-0.0042,0.004,0.0119,0.0102,0.0251,0.0233,0.0271,0.027,0.0254,0.0247,0.033,0.033,0.033,0.0329,0.0329,0,-0.0203,-0.0231,-0.028,-0.0305,-0.0328,-0.0321,-0.0317,-0.0296,-0.0251,-0.022,-0.0164,-0.0115,-0.0016,0.0073,0.0143,0.0245,0.0273,0.029,0.0304,0.0255,0.0246,0.0263,0.0254,0.0334,0.0333,0.0332,0.0331,0,-0.0212,-0.0251,-0.0301,-0.0337,-0.0345,-0.0358,-0.0347,-0.0333,-0.0291,-0.0245,-0.0225,-0.0124,-0.0005,0.0096,0.0238,0.0268,0.0366,0.04,0.0353,0.0359,0.0351,0.0341,0.0452,0.0452,0.0452,0.0453,0.0453,0,-0.0227,-0.0261,-0.0326,-0.0352,-0.0375,-0.0389,-0.0388,-0.0357,-0.0336,-0.0246,-0.0219,-0.0097,-0.0022,0.0174,0.0265,0.0408,0.0415,0.0454,0.0393,0.0365,0.0367,0.0356,0.0346,0.0453,0.0453,0.0453,0.0453,0,-0.0245,-0.0275,-0.0315,-0.0372,-0.0397,-0.0415,-0.0413,-0.0403,-0.0347,-0.0311,-0.019,-0.0086,0.0053,0.0186,0.0301,0.0395,0.0415,0.0456,0.0455,0.0398,0.0367,0.0366,0.0356,0.0453,0.0453,0.0453,0.0453,0,-0.0249,-0.0278,-0.0331,-0.037,-0.0413,-0.043,-0.043,-0.0386,-0.0354,-0.0257,-0.0211,-0.0056,0.0042,0.0182,0.0287,0.0376,0.0379,0.0373,0.0376,0.0377,0.0302,0.0248,0.0327,0,0,0,0,0,-0.0247,-0.0269,-0.0315,-0.0367,-0.0412,-0.0427,-0.0435,-0.0424,-0.0378,-0.0293,-0.0249,-0.0112,0.0064,0.0147,0.0235,0.0258,0.0369,0.0356,0.0357,0.0456,0.0455,0.0375,0,0,0,0,0,0,-0.0248,-0.0288,-0.0307,-0.035,-0.038,-0.0415,-0.0424,-0.0398,-0.0346,-0.0285,-0.0179,-0.0113,0.0066,0.0033,0.0239,0.0265,0.0267,0.0448,0.0448,0.0456,0.0456,0.0455,0.0373,0,0,0,0,0]}]]